Home   Weather   Pokhara   Past weeks

Flag for Nepal Past Weather in Pokhara, Nepal — Yesterday and Last 2 Weeks

Now
66 °F

Broken clouds.


Feels Like: 66 °F
Forecast: 60 / 82 °F
Wind: 2 mph from North

Location: Kathmandu Airport

Current Time: Sep 25, 2016 at 7:55:13 AM

Latest Report: Sep 25, 2016 at 7:05 AM


Visibility: 4 mi

Pressure: 29.92 "Hg (27.10 "Hg at 847m altitude)

Humidity: 94%

Dew Point: 64 °F

Location of PokharaLocation

Past Weather in Pokhara — Graph

°F

Pokhara Temperature Yesterday

Maximum temperature yesterday: 75 °F (at 11:05 AM)
Minimum temperature yesterday: 66 °F (at 1:35 AM)
Average temperature yesterday: 69 °F

High & Low Weather Summary for the Past Weeks

 TemperatureHumidityPressure
High84 °F (Sep 15, 12:35 PM)100% (Sep 10, 7:35 AM)30.12 "Hg (Sep 10, 7:35 AM)
Low50 °F (Sep 22, 3:35 AM)54% (Sep 22, 12:05 PM)29.83 "Hg (Sep 16, 3:35 PM)
Average72 °F85%29.97 "Hg
* Reported Sep 10 6:05 AM — Sep 25 6:35 AM, Pokhara, Weather by CustomWeather, © 2016

Note: Actual official high and low records may vary slightly from our data, if they occured in-between our weather recording intervals... More about our weather records

Advertising

Pokhara Weather History for the Previous 24 Hours

Scroll right to see more
 ConditionsComfort  
Time TempWeatherWind HumidityBarometerVisibility
6:35 AM
Sun, Sep 25
66 °FFog.5 mph100%29.92 "Hg3 mi
6:05 AM66 °FFog.2 mph100%29.92 "Hg3 mi
5:35 AM66 °FPartly cloudy.2 mph94%29.89 "Hg3 mi
3:35 AM66 °FPartly cloudy.2 mph94%29.89 "Hg4 mi
2:35 AM66 °FPartly cloudy.3 mph100%29.92 "Hg3 mi
1:35 AM66 °FPartly cloudy.2 mph100%29.92 "Hg4 mi
12:35 AM66 °FPartly cloudy.2 mph100%29.92 "Hg4 mi
12:05 AM66 °FFog.3 mph94%29.92 "Hg2 mi
11:35 PM
Sat, Sep 24
66 °FFog.No wind94%29.95 "Hg2 mi
11:05 PM66 °FFog.5 mph94%29.95 "Hg3 mi
10:35 PM68 °FPartly cloudy.No wind94%29.92 "Hg4 mi
10:05 PM68 °FPartly cloudy.2 mph94%29.95 "Hg4 mi
9:35 PM68 °FPartly cloudy.No wind94%29.95 "Hg4 mi
9:05 PM68 °FPartly cloudy.2 mph94%29.95 "Hg4 mi
8:35 PM68 °FPartly cloudy.2 mph94%29.95 "Hg4 mi
8:05 PM68 °FPartly cloudy.5 mph94%29.95 "Hg4 mi
7:05 PM68 °FLight rain. Partly cloudy.5 mph94%29.92 "Hg4 mi
6:35 PM70 °FLight rain. Broken clouds.No wind88%29.92 "Hg4 mi
6:05 PM68 °FBroken clouds.N/A94%29.89 "Hg5 mi
5:35 PM68 °FBroken clouds.2 mph94%29.89 "Hg5 mi
5:05 PM68 °FBroken clouds.5 mph94%29.86 "Hg5 mi
4:35 PM70 °FBroken clouds.2 mph88%29.86 "Hg5 mi
4:05 PM70 °FBroken clouds.3 mph88%29.86 "Hg4 mi
3:35 PM70 °FBroken clouds.2 mph88%29.86 "Hg4 mi
3:05 PM70 °FDrizzle. Broken clouds.3 mph83%29.89 "Hg4 mi
2:35 PM68 °FBroken clouds.No wind88%29.89 "Hg4 mi
2:05 PM68 °FLight rain. Broken clouds.3 mph88%29.89 "Hg4 mi
1:35 PM66 °FThunderstorms. More clouds than sun.6 mph94%29.95 "Hg4 mi
1:05 PM68 °FThunderstorms. More clouds than sun.6 mph94%29.95 "Hg2 mi
12:05 PM68 °FThunderstorms. More clouds than sun.2 mph100%29.98 "Hg2 mi
11:35 AM70 °FMore clouds than sun.6 mph94%29.98 "Hg2 mi
11:05 AM75 °FBroken clouds.3 mph78%29.98 "Hg4 mi
10:35 AM73 °FBroken clouds.5 mph83%29.98 "Hg5 mi
10:05 AM73 °FBroken clouds.2 mph78%29.98 "Hg5 mi
9:35 AM72 °FBroken clouds.2 mph83%29.98 "Hg4 mi
9:05 AM72 °FBroken clouds.No wind83%29.98 "Hg4 mi
8:35 AM70 °FBroken clouds.3 mph88%29.98 "Hg4 mi
8:05 AM72 °FBroken clouds.2 mph83%29.95 "Hg4 mi
7:35 AM68 °FBroken clouds.2 mph94%29.95 "Hg4 mi
7:05 AM66 °FBroken clouds.No wind100%29.95 "Hg4 mi
Weather by CustomWeather, © 2016

See weather overviewHow to use our weather pages